owner,sensor,date,latitude,longitude,vertical_datum,wind_speed,wind_to_direction,wind_speed_of_gust,qcFlag 
TCOON,ioos:station:TCOON:013:1,2013-12-09T15:24:00Z,27.4847,-97.3181,0.0,6.0,26.0,6.6,'1111122,1111122,1111122' 
TCOON,ioos:station:TCOON:013:1,2013-12-09T16:48:00Z,27.4847,-97.3181,0.0,2.1,289.0,5.2,'1111122,1111122,1111122' 
TCOON,ioos:station:TCOON:013:1,2013-12-09T17:24:00Z,27.4847,-97.3181,0.0,5.9,22.0,7.4,'1111122,1111122,1111122' 
TCOON,ioos:station:TCOON:013:1,2013-12-10T07:18:00Z,27.4847,-97.3181,0.0,10.9,0.0,12.5,'1111122,1114422,1111122' 
TCOON,ioos:station:TCOON:013:1,2013-12-10T10:54:00Z,27.4847,-97.3181,0.0,10.2,2.0,13.2,'1111122,1111122,1111122' 
TCOON,ioos:station:TCOON:013:1,2013-12-10T20:24:00Z,27.4847,-97.3181,0.0,4.4,353.0,5.2,'1111122,1111122,1111122' 
TCOON,ioos:station:TCOON:013:1,2013-12-11T17:54:00Z,27.4847,-97.3181,0.0,4.5,10.0,5.7,'1111122,1111122,1111122' 
TCOON,ioos:station:TCOON:013:1,2013-12-12T15:24:00Z,27.4847,-97.3181,0.0,8.4,26.0,9.4,'1111122,1111122,1111122' 
TCOON,ioos:station:TCOON:013:1,2013-12-12T17:24:00Z,27.4847,-97.3181,0.0,6.9,19.0,7.7,'1111122,1111122,1111122' 
TCOON,ioos:station:TCOON:013:1,2013-12-12T22:54:00Z,27.4847,-97.3181,0.0,4.1,44.0,4.7,'1111122,1111122,1111122' 
TCOON,ioos:station:TCOON:013:1,2013-12-13T06:18:00Z,27.4847,-97.3181,0.0,4.0,322.0,4.5,'1111122,1111122,1111122' 
TCOON,ioos:station:TCOON:013:1,2013-12-13T06:48:00Z,27.4847,-97.3181,0.0,4.1,347.0,5.1,'1111122,1111122,1111122' 
TCOON,ioos:station:TCOON:013:1,2013-12-13T07:24:00Z,27.4847,-97.3181,0.0,4.6,6.0,5.3,'1111122,1111122,1111122' 
TCOON,ioos:station:TCOON:013:1,2013-12-13T07:48:00Z,27.4847,-97.3181,0.0,4.1,353.0,4.6,'1111122,1111122,1111122' 
TCOON,ioos:station:TCOON:013:1,2013-12-13T08:24:00Z,27.4847,-97.3181,0.0,3.9,357.0,4.9,'1111122,1111122,1111122' 
TCOON,ioos:station:TCOON:013:1,2013-12-13T08:54:00Z,27.4847,-97.3181,0.0,3.5,18.0,4.0,'1111122,1111122,1111122' 
TCOON,ioos:station:TCOON:013:1,2013-12-13T09:18:00Z,27.4847,-97.3181,0.0,3.7,10.0,4.1,'1111122,1111122,1111122' 
TCOON,ioos:station:TCOON:013:1,2013-12-13T09:48:00Z,27.4847,-97.3181,0.0,3.9,346.0,4.4,'1111122,1111122,1111122' 
TCOON,ioos:station:TCOON:013:1,2013-12-13T10:18:00Z,27.4847,-97.3181,0.0,3.6,348.0,4.2,'1111122,1111122,1111122' 
TCOON,ioos:station:TCOON:013:1,2013-12-13T10:54:00Z,27.4847,-97.3181,0.0,4.8,349.0,5.5,'1111122,1111122,1111122' 
TCOON,ioos:station:TCOON:013:1,2013-12-13T11:24:00Z,27.4847,-97.3181,0.0,4.5,0.0,5.1,'1111122,1114422,1111122' 
TCOON,ioos:station:TCOON:013:1,2013-12-13T11:54:00Z,27.4847,-97.3181,0.0,5.4,5.0,6.2,'1111122,1111122,1111122' 
TCOON,ioos:station:TCOON:013:1,2013-12-13T12:18:00Z,27.4847,-97.3181,0.0,5.8,4.0,6.4,'1111122,1111122,1111122' 
TCOON,ioos:station:TCOON:013:1,2013-12-13T12:54:00Z,27.4847,-97.3181,0.0,5.2,6.0,5.9,'1111122,1111122,1111122' 
TCOON,ioos:station:TCOON:013:1,2013-12-13T13:24:00Z,27.4847,-97.3181,0.0,5.2,14.0,6.0,'1111122,1111122,1111122' 
TCOON,ioos:station:TCOON:013:1,2013-12-13T13:54:00Z,27.4847,-97.3181,0.0,4.5,11.0,5.2,'1111122,1111122,1111122' 
TCOON,ioos:station:TCOON:013:1,2013-12-13T14:24:00Z,27.4847,-97.3181,0.0,5.3,21.0,6.7,'1111122,1111122,1111122' 
TCOON,ioos:station:TCOON:013:1,2013-12-13T14:54:00Z,27.4847,-97.3181,0.0,4.1,24.0,5.6,'1111122,1111122,1111122' 
TCOON,ioos:station:TCOON:013:1,2013-12-13T15:24:00Z,27.4847,-97.3181,0.0,4.0,34.0,4.5,'1111122,1111122,1111122' 
TCOON,ioos:station:TCOON:013:1,2013-12-13T16:48:00Z,27.4847,-97.3181,0.0,4.7,71.0,5.2,'1111122,1111122,1111122' 
TCOON,ioos:station:TCOON:013:1,2013-12-13T17:06:00Z,27.4847,-97.3181,0.0,4.0,60.0,4.7,'1111122,1111122,1111122' 
TCOON,ioos:station:TCOON:013:1,2013-12-13T17:36:00Z,27.4847,-97.3181,0.0,3.3,60.0,4.0,'1111122,1111122,1111122' 
TCOON,ioos:station:TCOON:013:1,2013-12-13T18:06:00Z,27.4847,-97.3181,0.0,4.0,6.0,4.3,'1111122,1111122,1111122' 
TCOON,ioos:station:TCOON:013:1,2013-12-13T18:36:00Z,27.4847,-97.3181,0.0,2.8,34.0,3.3,'1111122,1111122,1111122' 
TCOON,ioos:station:TCOON:013:1,2013-12-13T19:06:00Z,27.4847,-97.3181,0.0,3.3,105.0,4.4,'1111122,1111122,1111122' 
TCOON,ioos:station:TCOON:013:1,2013-12-13T19:36:00Z,27.4847,-97.3181,0.0,2.5,133.0,3.4,'1111122,1111122,1111122' 
TCOON,ioos:station:TCOON:013:1,2013-12-13T20:06:00Z,27.4847,-97.3181,0.0,1.5,309.0,1.6,'1111122,1111122,1111122' 
TCOON,ioos:station:TCOON:013:1,2013-12-13T20:36:00Z,27.4847,-97.3181,0.0,2.4,345.0,2.7,'1111122,1111122,1111122' 
TCOON,ioos:station:TCOON:013:1,2013-12-13T21:06:00Z,27.4847,-97.3181,0.0,1.9,34.0,2.2,'1111122,1111122,1111122' 
TCOON,ioos:station:TCOON:013:1,2013-12-13T21:36:00Z,27.4847,-97.3181,0.0,3.1,135.0,4.2,'1111122,1111122,1111122' 
TCOON,ioos:station:TCOON:013:1,2013-12-13T22:06:00Z,27.4847,-97.3181,0.0,3.4,122.0,4.4,'1111122,1111122,1111122' 
TCOON,ioos:station:TCOON:013:1,2013-12-13T22:36:00Z,27.4847,-97.3181,0.0,4.3,129.0,5.8,'1111122,1111122,1111122' 
TCOON,ioos:station:TCOON:013:1,2013-12-13T23:06:00Z,27.4847,-97.3181,0.0,3.5,144.0,4.1,'1111122,1111122,1111122' 
TCOON,ioos:station:TCOON:013:1,2013-12-13T23:36:00Z,27.4847,-97.3181,0.0,2.7,164.0,3.9,'1111122,1111122,1111122' 
TCOON,ioos:station:TCOON:013:1,2013-12-14T00:06:00Z,27.4847,-97.3181,0.0,1.6,155.0,1.6,'1111122,1111122,1111122' 
TCOON,ioos:station:TCOON:013:1,2013-12-14T00:36:00Z,27.4847,-97.3181,0.0,2.6,192.0,2.8,'1111122,1111122,1111122' 
TCOON,ioos:station:TCOON:013:1,2013-12-14T01:06:00Z,27.4847,-97.3181,0.0,1.2,220.0,1.6,'1111122,1111122,1111122' 
TCOON,ioos:station:TCOON:013:1,2013-12-14T01:36:00Z,27.4847,-97.3181,0.0,2.0,206.0,2.5,'1111122,1111122,1111122' 
TCOON,ioos:station:TCOON:013:1,2013-12-14T02:06:00Z,27.4847,-97.3181,0.0,1.5,257.0,1.6,'1111122,1111122,1111122' 
TCOON,ioos:station:TCOON:013:1,2013-12-14T02:36:00Z,27.4847,-97.3181,0.0,1.6,328.0,1.8,'1111122,1111122,1111122' 
TCOON,ioos:station:TCOON:013:1,2013-12-14T03:06:00Z,27.4847,-97.3181,0.0,2.0,317.0,3.1,'1111122,1111122,1111122' 
TCOON,ioos:station:TCOON:013:1,2013-12-14T03:36:00Z,27.4847,-97.3181,0.0,1.3,354.0,1.6,'1111122,1111122,1111122' 
TCOON,ioos:station:TCOON:013:1,2013-12-14T04:06:00Z,27.4847,-97.3181,0.0,0.8,92.0,1.0,'1111122,1111122,1111122' 
TCOON,ioos:station:TCOON:013:1,2013-12-14T04:36:00Z,27.4847,-97.3181,0.0,3.1,34.0,3.4,'1111122,1111122,1111122' 
TCOON,ioos:station:TCOON:013:1,2013-12-14T05:06:00Z,27.4847,-97.3181,0.0,2.6,28.0,2.8,'1111122,1111122,1111122' 
TCOON,ioos:station:TCOON:013:1,2013-12-14T06:06:00Z,27.4847,-97.3181,0.0,3.3,8.0,3.6,'1111122,1111122,1111122' 
TCOON,ioos:station:TCOON:013:1,2013-12-14T06:36:00Z,27.4847,-97.3181,0.0,4.3,15.0,5.0,'1111122,1111122,1111122' 
TCOON,ioos:station:TCOON:013:1,2013-12-14T07:06:00Z,27.4847,-97.3181,0.0,3.5,14.0,4.0,'1111122,1111122,1111122' 
TCOON,ioos:station:TCOON:013:1,2013-12-14T07:36:00Z,27.4847,-97.3181,0.0,2.1,31.0,2.4,'1111122,1111122,1111122' 
TCOON,ioos:station:TCOON:013:1,2013-12-14T08:06:00Z,27.4847,-97.3181,0.0,2.9,31.0,3.1,'1111122,1111122,1111122' 
TCOON,ioos:station:TCOON:013:1,2013-12-14T08:36:00Z,27.4847,-97.3181,0.0,2.0,22.0,2.3,'1111122,1111122,1111122' 
TCOON,ioos:station:TCOON:013:1,2013-12-14T09:06:00Z,27.4847,-97.3181,0.0,1.7,55.0,1.9,'1111122,1111122,1111122' 
TCOON,ioos:station:TCOON:013:1,2013-12-14T09:36:00Z,27.4847,-97.3181,0.0,1.6,43.0,1.7,'1111122,1111122,1111122' 
TCOON,ioos:station:TCOON:013:1,2013-12-14T10:06:00Z,27.4847,-97.3181,0.0,2.1,34.0,2.5,'1111122,1111122,1111122' 
TCOON,ioos:station:TCOON:013:1,2013-12-14T10:36:00Z,27.4847,-97.3181,0.0,3.2,26.0,3.6,'1111122,1111122,1111122' 
TCOON,ioos:station:TCOON:013:1,2013-12-14T11:06:00Z,27.4847,-97.3181,0.0,2.8,357.0,4.6,'1111122,1111122,1111122' 
TCOON,ioos:station:TCOON:013:1,2013-12-14T11:36:00Z,27.4847,-97.3181,0.0,4.2,340.0,4.6,'1111122,1111122,1111122' 
TCOON,ioos:station:TCOON:013:1,2013-12-14T12:06:00Z,27.4847,-97.3181,0.0,3.4,341.0,4.3,'1111122,1111122,1111122' 
TCOON,ioos:station:TCOON:013:1,2013-12-14T12:36:00Z,27.4847,-97.3181,0.0,3.1,345.0,3.4,'1111122,1111122,1111122' 
TCOON,ioos:station:TCOON:013:1,2013-12-14T13:12:00Z,27.4847,-97.3181,0.0,4.2,348.0,4.7,'1111122,1111122,1111122' 
TCOON,ioos:station:TCOON:013:1,2013-12-14T13:42:00Z,27.4847,-97.3181,0.0,3.7,342.0,4.3,'1111122,1111122,1111122' 
TCOON,ioos:station:TCOON:013:1,2013-12-14T14:06:00Z,27.4847,-97.3181,0.0,4.7,344.0,5.3,'1111122,1111122,1111122' 
TCOON,ioos:station:TCOON:013:1,2013-12-14T14:36:00Z,27.4847,-97.3181,0.0,4.6,336.0,5.3,'1111122,1111122,1111122' 
TCOON,ioos:station:TCOON:013:1,2013-12-14T15:12:00Z,27.4847,-97.3181,0.0,4.7,334.0,5.4,'1111122,1111122,1111122' 
TCOON,ioos:station:TCOON:013:1,2013-12-14T15:36:00Z,27.4847,-97.3181,0.0,5.8,329.0,6.3,'1111122,1111122,1111122' 
TCOON,ioos:station:TCOON:013:1,2013-12-14T16:12:00Z,27.4847,-97.3181,0.0,6.5,326.0,7.5,'1111122,1111122,1111122' 
TCOON,ioos:station:TCOON:013:1,2013-12-14T16:36:00Z,27.4847,-97.3181,0.0,8.0,325.0,9.6,'1111122,1111122,1111122' 
TCOON,ioos:station:TCOON:013:1,2013-12-14T17:12:00Z,27.4847,-97.3181,0.0,9.0,331.0,10.8,'1111122,1111122,1111122' 
TCOON,ioos:station:TCOON:013:1,2013-12-14T17:42:00Z,27.4847,-97.3181,0.0,7.8,331.0,10.3,'1111122,1111122,1111122' 
TCOON,ioos:station:TCOON:013:1,2013-12-14T18:12:00Z,27.4847,-97.3181,0.0,5.6,325.0,8.1,'1111122,1111122,1111122' 
TCOON,ioos:station:TCOON:013:1,2013-12-14T18:42:00Z,27.4847,-97.3181,0.0,7.1,326.0,10.2,'1111122,1111122,1111122' 
TCOON,ioos:station:TCOON:013:1,2013-12-14T19:12:00Z,27.4847,-97.3181,0.0,8.3,332.0,10.7,'1111122,1111122,1111122' 
TCOON,ioos:station:TCOON:013:1,2013-12-14T19:42:00Z,27.4847,-97.3181,0.0,8.8,329.0,10.9,'1111122,1111122,1111122' 
TCOON,ioos:station:TCOON:013:1,2013-12-14T20:12:00Z,27.4847,-97.3181,0.0,10.3,337.0,13.1,'1111122,1111122,1111122' 
TCOON,ioos:station:TCOON:013:1,2013-12-14T20:42:00Z,27.4847,-97.3181,0.0,8.6,338.0,11.6,'1111122,1111122,1111122' 
TCOON,ioos:station:TCOON:013:1,2013-12-14T21:12:00Z,27.4847,-97.3181,0.0,7.8,346.0,10.0,'1111122,1111122,1111122' 
TCOON,ioos:station:TCOON:013:1,2013-12-14T21:42:00Z,27.4847,-97.3181,0.0,8.7,359.0,9.5,'1111122,1111122,1111122' 
TCOON,ioos:station:TCOON:013:1,2013-12-14T22:06:00Z,27.4847,-97.3181,0.0,10.2,10.0,11.9,'1111122,1111122,1111122' 
TCOON,ioos:station:TCOON:013:1,2013-12-14T22:42:00Z,27.4847,-97.3181,0.0,11.0,6.0,12.1,'1111122,1111122,1111122' 
TCOON,ioos:station:TCOON:013:1,2013-12-14T23:12:00Z,27.4847,-97.3181,0.0,10.1,6.0,12.9,'1111122,1111122,1111122' 
TCOON,ioos:station:TCOON:013:1,2013-12-14T23:42:00Z,27.4847,-97.3181,0.0,10.1,9.0,11.7,'1111122,1111122,1111122' 
TCOON,ioos:station:TCOON:013:1,2013-12-15T00:12:00Z,27.4847,-97.3181,0.0,10.1,19.0,11.5,'1111122,1111122,1111122' 
TCOON,ioos:station:TCOON:013:1,2013-12-15T00:42:00Z,27.4847,-97.3181,0.0,8.8,20.0,10.2,'1111122,1111122,1111122' 
TCOON,ioos:station:TCOON:013:1,2013-12-15T01:12:00Z,27.4847,-97.3181,0.0,10.2,16.0,11.9,'1111122,1111122,1111122' 
TCOON,ioos:station:TCOON:013:1,2013-12-15T01:42:00Z,27.4847,-97.3181,0.0,9.2,16.0,10.8,'1111122,1111122,1111122' 
TCOON,ioos:station:TCOON:013:1,2013-12-15T02:12:00Z,27.4847,-97.3181,0.0,11.1,9.0,12.9,'1111122,1111122,1111122' 
TCOON,ioos:station:TCOON:013:1,2013-12-15T02:42:00Z,27.4847,-97.3181,0.0,10.1,10.0,12.3,'1111122,1111122,1111122' 
TCOON,ioos:station:TCOON:013:1,2013-12-15T03:06:00Z,27.4847,-97.3181,0.0,9.6,5.0,10.7,'1111122,1111122,1111122' 
TCOON,ioos:station:TCOON:013:1,2013-12-15T03:42:00Z,27.4847,-97.3181,0.0,10.1,7.0,10.9,'1111122,1111122,1111122' 
TCOON,ioos:station:TCOON:013:1,2013-12-15T04:12:00Z,27.4847,-97.3181,0.0,8.3,6.0,11.9,'1111122,1111122,1111122' 
TCOON,ioos:station:TCOON:013:1,2013-12-15T04:42:00Z,27.4847,-97.3181,0.0,9.8,6.0,11.5,'1111122,1111122,1111122' 
TCOON,ioos:station:TCOON:013:1,2013-12-15T05:12:00Z,27.4847,-97.3181,0.0,10.6,8.0,12.0,'1111122,1111122,1111122' 
TCOON,ioos:station:TCOON:013:1,2013-12-15T05:42:00Z,27.4847,-97.3181,0.0,8.9,12.0,11.2,'1111122,1111122,1111122' 
TCOON,ioos:station:TCOON:013:1,2013-12-15T06:12:00Z,27.4847,-97.3181,0.0,10.0,8.0,11.3,'1111122,1111122,1111122' 
TCOON,ioos:station:TCOON:013:1,2013-12-15T06:42:00Z,27.4847,-97.3181,0.0,10.6,9.0,12.7,'1111122,1111122,1111122' 
TCOON,ioos:station:TCOON:013:1,2013-12-15T07:12:00Z,27.4847,-97.3181,0.0,10.9,15.0,12.8,'1111122,1111122,1111122' 
TCOON,ioos:station:TCOON:013:1,2013-12-15T07:42:00Z,27.4847,-97.3181,0.0,9.1,14.0,12.2,'1111122,1111122,1111122' 
TCOON,ioos:station:TCOON:013:1,2013-12-15T08:12:00Z,27.4847,-97.3181,0.0,10.1,12.0,12.0,'1111122,1111122,1111122' 
TCOON,ioos:station:TCOON:013:1,2013-12-15T08:42:00Z,27.4847,-97.3181,0.0,9.2,14.0,12.8,'1111122,1111122,1111122' 
TCOON,ioos:station:TCOON:013:1,2013-12-15T09:12:00Z,27.4847,-97.3181,0.0,8.8,15.0,12.1,'1111122,1111122,1111122' 
TCOON,ioos:station:TCOON:013:1,2013-12-15T09:42:00Z,27.4847,-97.3181,0.0,9.8,11.0,12.1,'1111122,1111122,1111122' 
TCOON,ioos:station:TCOON:013:1,2013-12-15T10:12:00Z,27.4847,-97.3181,0.0,9.1,7.0,10.5,'1111122,1111122,1111122' 
TCOON,ioos:station:TCOON:013:1,2013-12-15T10:42:00Z,27.4847,-97.3181,0.0,7.1,7.0,9.1,'1111122,1111122,1111122' 
TCOON,ioos:station:TCOON:013:1,2013-12-15T11:12:00Z,27.4847,-97.3181,0.0,3.0,296.0,4.4,'1111122,1111122,1111122' 
TCOON,ioos:station:TCOON:013:1,2013-12-15T11:42:00Z,27.4847,-97.3181,0.0,3.1,272.0,3.5,'1111122,1111122,1111122' 
TCOON,ioos:station:TCOON:013:1,2013-12-15T12:12:00Z,27.4847,-97.3181,0.0,2.6,261.0,3.3,'1111122,1111122,1111122' 
TCOON,ioos:station:TCOON:013:1,2013-12-15T12:42:00Z,27.4847,-97.3181,0.0,4.0,280.0,4.7,'1111122,1111122,1111122' 
TCOON,ioos:station:TCOON:013:1,2013-12-15T13:12:00Z,27.4847,-97.3181,0.0,4.3,283.0,4.7,'1111122,1111122,1111122' 
TCOON,ioos:station:TCOON:013:1,2013-12-15T13:42:00Z,27.4847,-97.3181,0.0,4.7,295.0,5.2,'1111122,1111122,1111122' 
TCOON,ioos:station:TCOON:013:1,2013-12-15T14:12:00Z,27.4847,-97.3181,0.0,4.3,306.0,4.8,'1111122,1111122,1111122' 
TCOON,ioos:station:TCOON:013:1,2013-12-15T14:42:00Z,27.4847,-97.3181,0.0,3.7,325.0,4.6,'1111122,1111122,1111122' 
TCOON,ioos:station:TCOON:013:1,2013-12-15T15:12:00Z,27.4847,-97.3181,0.0,3.8,337.0,4.9,'1111122,1111122,1111122' 
TCOON,ioos:station:TCOON:013:1,2013-12-15T15:48:00Z,27.4847,-97.3181,0.0,5.1,1.0,7.0,'1111122,1111122,1111122' 
TCOON,ioos:station:TCOON:013:1,2013-12-15T16:12:00Z,27.4847,-97.3181,0.0,3.6,348.0,4.6,'1111122,1111122,1111122' 
TCOON,ioos:station:TCOON:013:1,2013-12-15T16:42:00Z,27.4847,-97.3181,0.0,2.9,360.0,3.4,'1111122,1111122,1111122' 
TCOON,ioos:station:TCOON:013:1,2013-12-15T17:12:00Z,27.4847,-97.3181,0.0,3.4,35.0,3.9,'1111122,1111122,1111122' 
TCOON,ioos:station:TCOON:013:1,2013-12-15T17:42:00Z,27.4847,-97.3181,0.0,4.0,29.0,4.5,'1111122,1111122,1111122' 
TCOON,ioos:station:TCOON:013:1,2013-12-15T18:12:00Z,27.4847,-97.3181,0.0,4.2,37.0,5.1,'1111122,1111122,1111122' 
TCOON,ioos:station:TCOON:013:1,2013-12-15T18:48:00Z,27.4847,-97.3181,0.0,4.9,36.0,5.5,'1111122,1111122,1111122' 
TCOON,ioos:station:TCOON:013:1,2013-12-15T19:18:00Z,27.4847,-97.3181,0.0,4.7,24.0,5.4,'1111122,1111122,1111122' 
TCOON,ioos:station:TCOON:013:1,2013-12-15T19:48:00Z,27.4847,-97.3181,0.0,6.3,32.0,7.1,'1111122,1111122,1111122' 
TCOON,ioos:station:TCOON:013:1,2013-12-15T20:18:00Z,27.4847,-97.3181,0.0,5.0,28.0,6.2,'1111122,1111122,1111122' 
TCOON,ioos:station:TCOON:013:1,2013-12-15T20:48:00Z,27.4847,-97.3181,0.0,5.3,36.0,6.1,'1111122,1111122,1111122' 
TCOON,ioos:station:TCOON:013:1,2013-12-15T21:18:00Z,27.4847,-97.3181,0.0,5.1,32.0,6.1,'1111122,1111122,1111122' 
TCOON,ioos:station:TCOON:013:1,2013-12-15T21:48:00Z,27.4847,-97.3181,0.0,4.3,39.0,4.7,'1111122,1111122,1111122' 
TCOON,ioos:station:TCOON:013:1,2013-12-15T22:18:00Z,27.4847,-97.3181,0.0,3.4,60.0,3.8,'1111122,1111122,1111122' 
TCOON,ioos:station:TCOON:013:1,2013-12-15T22:48:00Z,27.4847,-97.3181,0.0,3.0,56.0,3.9,'1111122,1111122,1111122' 
TCOON,ioos:station:TCOON:013:1,2013-12-15T23:18:00Z,27.4847,-97.3181,0.0,2.0,99.0,2.3,'1111122,1111122,1111122' 
TCOON,ioos:station:TCOON:013:1,2013-12-15T23:48:00Z,27.4847,-97.3181,0.0,1.2,106.0,1.8,'1111122,1111122,1111122' 
TCOON,ioos:station:TCOON:013:1,2013-12-16T00:18:00Z,27.4847,-97.3181,0.0,1.4,99.0,1.7,'1111122,1111122,1111122' 
TCOON,ioos:station:TCOON:013:1,2013-12-16T00:48:00Z,27.4847,-97.3181,0.0,1.5,129.0,1.6,'1111122,1111122,1111122' 
TCOON,ioos:station:TCOON:013:1,2013-12-16T01:18:00Z,27.4847,-97.3181,0.0,1.9,125.0,2.0,'1111122,1111122,1111122' 
TCOON,ioos:station:TCOON:013:1,2013-12-16T01:48:00Z,27.4847,-97.3181,0.0,1.1,126.0,1.2,'1111122,1111122,1111122' 
TCOON,ioos:station:TCOON:013:1,2013-12-16T02:18:00Z,27.4847,-97.3181,0.0,2.0,134.0,2.2,'1111122,1111122,1111122' 
TCOON,ioos:station:TCOON:013:1,2013-12-16T02:48:00Z,27.4847,-97.3181,0.0,2.1,139.0,2.2,'1111122,1111122,1111122' 
TCOON,ioos:station:TCOON:013:1,2013-12-16T03:18:00Z,27.4847,-97.3181,0.0,1.3,211.0,1.5,'1111122,1111122,1111122' 
TCOON,ioos:station:TCOON:013:1,2013-12-16T03:48:00Z,27.4847,-97.3181,0.0,1.8,204.0,1.9,'1111122,1111122,1111122' 
TCOON,ioos:station:TCOON:013:1,2013-12-16T04:18:00Z,27.4847,-97.3181,0.0,1.8,228.0,2.0,'1111122,1111122,1111122' 
TCOON,ioos:station:TCOON:013:1,2013-12-16T04:48:00Z,27.4847,-97.3181,0.0,1.5,235.0,1.8,'1111122,1111122,1111122' 
TCOON,ioos:station:TCOON:013:1,2013-12-16T05:18:00Z,27.4847,-97.3181,0.0,1.3,245.0,1.5,'1111122,1111122,1111122' 
TCOON,ioos:station:TCOON:013:1,2013-12-16T05:48:00Z,27.4847,-97.3181,0.0,0.4,226.0,0.6,'1111122,1111122,1111122' 
TCOON,ioos:station:TCOON:013:1,2013-12-16T06:18:00Z,27.4847,-97.3181,0.0,2.1,247.0,2.6,'1111122,1111122,1111122' 
TCOON,ioos:station:TCOON:013:1,2013-12-16T06:48:00Z,27.4847,-97.3181,0.0,1.8,248.0,1.9,'1111122,1111122,1111122' 
TCOON,ioos:station:TCOON:013:1,2013-12-16T07:18:00Z,27.4847,-97.3181,0.0,1.3,234.0,1.4,'1111122,1111122,1111122' 
TCOON,ioos:station:TCOON:013:1,2013-12-16T07:48:00Z,27.4847,-97.3181,0.0,1.0,225.0,1.1,'1111122,1111122,1111122' 
TCOON,ioos:station:TCOON:013:1,2013-12-16T08:18:00Z,27.4847,-97.3181,0.0,1.4,213.0,1.6,'1111122,1111122,1111122' 
TCOON,ioos:station:TCOON:013:1,2013-12-16T08:48:00Z,27.4847,-97.3181,0.0,0.9,233.0,1.0,'1111122,1111122,1111122' 
TCOON,ioos:station:TCOON:013:1,2013-12-16T09:24:00Z,27.4847,-97.3181,0.0,0.3,231.0,0.6,'1111122,1111122,1111122' 
TCOON,ioos:station:TCOON:013:1,2013-12-16T09:48:00Z,27.4847,-97.3181,0.0,4.0,280.0,4.5,'1111122,1111122,1111122' 
TCOON,ioos:station:TCOON:013:1,2013-12-16T10:18:00Z,27.4847,-97.3181,0.0,4.6,293.0,4.9,'1111122,1111122,1111122' 
TCOON,ioos:station:TCOON:013:1,2013-12-16T10:48:00Z,27.4847,-97.3181,0.0,4.9,306.0,5.6,'1111122,1111122,1111122' 
TCOON,ioos:station:TCOON:013:1,2013-12-16T11:18:00Z,27.4847,-97.3181,0.0,3.9,309.0,4.4,'1111122,1111122,1111122' 
TCOON,ioos:station:TCOON:013:1,2013-12-16T11:48:00Z,27.4847,-97.3181,0.0,3.8,317.0,4.2,'1111122,1111122,1111122' 
TCOON,ioos:station:TCOON:013:1,2013-12-16T12:18:00Z,27.4847,-97.3181,0.0,4.2,318.0,4.7,'1111122,1111122,1111122' 
TCOON,ioos:station:TCOON:013:1,2013-12-16T12:48:00Z,27.4847,-97.3181,0.0,3.7,324.0,4.1,'1111122,1111122,1111122' 
TCOON,ioos:station:TCOON:013:1,2013-12-16T13:18:00Z,27.4847,-97.3181,0.0,3.4,323.0,3.7,'1111122,1111122,1111122' 
TCOON,ioos:station:TCOON:013:1,2013-12-16T13:48:00Z,27.4847,-97.3181,0.0,2.9,332.0,3.3,'1111122,1111122,1111122' 
TCOON,ioos:station:TCOON:013:1,2013-12-16T14:18:00Z,27.4847,-97.3181,0.0,2.7,332.0,3.0,'1111122,1111122,1111122' 
TCOON,ioos:station:TCOON:013:1,2013-12-16T14:48:00Z,27.4847,-97.3181,0.0,2.1,334.0,2.5,'1111122,1111122,1111122' 
TCOON,ioos:station:TCOON:013:1,2013-12-16T15:18:00Z,27.4847,-97.3181,0.0,0.8,333.0,1.3,'1111122,1111122,1111122' 
TCOON,ioos:station:TCOON:013:1,2013-12-16T15:48:00Z,27.4847,-97.3181,0.0,0.6,335.0,0.8,'1111122,1111122,1111122' 
TCOON,ioos:station:TCOON:013:1,2013-12-16T16:18:00Z,27.4847,-97.3181,0.0,0.6,336.0,0.8,'1111122,1111122,1111122' 
TCOON,ioos:station:TCOON:013:1,2013-12-16T16:48:00Z,27.4847,-97.3181,0.0,1.7,341.0,1.8,'1111122,1111122,1111122' 
TCOON,ioos:station:TCOON:013:1,2013-12-16T17:18:00Z,27.4847,-97.3181,0.0,2.2,4.0,2.7,'1111122,1111122,1111122' 
TCOON,ioos:station:TCOON:013:1,2013-12-16T17:48:00Z,27.4847,-97.3181,0.0,2.0,6.0,2.4,'1111122,1111122,1111122' 
TCOON,ioos:station:TCOON:013:1,2013-12-16T18:18:00Z,27.4847,-97.3181,0.0,1.6,3.0,1.8,'1111122,1111122,1111122' 
TCOON,ioos:station:TCOON:013:1,2013-12-16T18:48:00Z,27.4847,-97.3181,0.0,1.9,24.0,2.1,'1111122,1111122,1111122' 
TCOON,ioos:station:TCOON:013:1,2013-12-16T19:24:00Z,27.4847,-97.3181,0.0,3.0,166.0,4.0,'1111122,1111122,1111122' 
TCOON,ioos:station:TCOON:013:1,2013-12-16T19:48:00Z,27.4847,-97.3181,0.0,3.7,152.0,4.8,'1111122,1111122,1111122' 
TCOON,ioos:station:TCOON:013:1,2013-12-16T20:24:00Z,27.4847,-97.3181,0.0,4.0,132.0,4.8,'1111122,1111122,1111122' 
TCOON,ioos:station:TCOON:013:1,2013-12-16T20:54:00Z,27.4847,-97.3181,0.0,4.1,133.0,5.0,'1111122,1111122,1111122' 
TCOON,ioos:station:TCOON:013:1,2013-12-16T21:24:00Z,27.4847,-97.3181,0.0,3.5,120.0,4.3,'1111122,1111122,1111122' 
TCOON,ioos:station:TCOON:013:1,2013-12-16T21:54:00Z,27.4847,-97.3181,0.0,2.9,133.0,3.9,'1111122,1111122,1111122' 
TCOON,ioos:station:TCOON:013:1,2013-12-16T22:18:00Z,27.4847,-97.3181,0.0,3.0,136.0,3.8,'1111122,1111122,1111122' 
TCOON,ioos:station:TCOON:013:1,2013-12-16T22:54:00Z,27.4847,-97.3181,0.0,2.6,128.0,3.6,'1111122,1111122,1111122' 
TCOON,ioos:station:TCOON:013:1,2013-12-16T23:24:00Z,27.4847,-97.3181,0.0,2.2,121.0,2.7,'1111122,1111122,1111122' 
TCOON,ioos:station:TCOON:013:1,2013-12-16T23:54:00Z,27.4847,-97.3181,0.0,2.4,107.0,2.6,'1111122,1111122,1111122' 
TCOON,ioos:station:TCOON:013:1,2013-12-17T00:18:00Z,27.4847,-97.3181,0.0,2.1,93.0,2.7,'1111122,1111122,1111122' 
TCOON,ioos:station:TCOON:013:1,2013-12-17T00:48:00Z,27.4847,-97.3181,0.0,2.3,110.0,2.6,'1111122,1111122,1111122' 
TCOON,ioos:station:TCOON:013:1,2013-12-17T01:18:00Z,27.4847,-97.3181,0.0,2.4,110.0,2.8,'1111122,1111122,1111122' 
TCOON,ioos:station:TCOON:013:1,2013-12-17T01:48:00Z,27.4847,-97.3181,0.0,2.0,107.0,2.2,'1111122,1111122,1111122' 
TCOON,ioos:station:TCOON:013:1,2013-12-17T02:18:00Z,27.4847,-97.3181,0.0,2.0,98.0,2.3,'1111122,1111122,1111122' 
TCOON,ioos:station:TCOON:013:1,2013-12-17T02:48:00Z,27.4847,-97.3181,0.0,2.2,112.0,2.4,'1111122,1111122,1111122' 
TCOON,ioos:station:TCOON:013:1,2013-12-17T03:18:00Z,27.4847,-97.3181,0.0,2.2,119.0,2.5,'1111122,1111122,1111122' 
TCOON,ioos:station:TCOON:013:1,2013-12-17T03:48:00Z,27.4847,-97.3181,0.0,1.8,152.0,2.4,'1111122,1111122,1111122' 
TCOON,ioos:station:TCOON:013:1,2013-12-17T04:18:00Z,27.4847,-97.3181,0.0,2.1,171.0,2.3,'1111122,1111122,1111122' 
TCOON,ioos:station:TCOON:013:1,2013-12-17T04:48:00Z,27.4847,-97.3181,0.0,1.7,190.0,2.0,'1111122,1111122,1111122' 
TCOON,ioos:station:TCOON:013:1,2013-12-17T05:18:00Z,27.4847,-97.3181,0.0,1.0,214.0,1.5,'1111122,1111122,1111122' 
TCOON,ioos:station:TCOON:013:1,2013-12-17T05:48:00Z,27.4847,-97.3181,0.0,1.1,225.0,1.3,'1111122,1111122,1111122' 
TCOON,ioos:station:TCOON:013:1,2013-12-17T06:18:00Z,27.4847,-97.3181,0.0,0.1,225.0,0.3,'1111122,1111122,1111122' 
TCOON,ioos:station:TCOON:013:1,2013-12-17T06:48:00Z,27.4847,-97.3181,0.0,0.3,195.0,0.6,'1111122,1111122,1111122' 
TCOON,ioos:station:TCOON:013:1,2013-12-17T07:18:00Z,27.4847,-97.3181,0.0,1.2,207.0,1.4,'1111122,1111122,1111122' 
TCOON,ioos:station:TCOON:013:1,2013-12-17T07:48:00Z,27.4847,-97.3181,0.0,1.5,216.0,1.8,'1111122,1111122,1111122' 
TCOON,ioos:station:TCOON:013:1,2013-12-17T08:18:00Z,27.4847,-97.3181,0.0,1.8,217.0,1.9,'1111122,1111122,1111122' 
TCOON,ioos:station:TCOON:013:1,2013-12-17T08:48:00Z,27.4847,-97.3181,0.0,1.1,293.0,1.2,'1111122,1111122,1111122' 
TCOON,ioos:station:TCOON:013:1,2013-12-17T09:18:00Z,27.4847,-97.3181,0.0,1.5,260.0,2.0,'1111122,1111122,1111122' 
TCOON,ioos:station:TCOON:013:1,2013-12-17T09:48:00Z,27.4847,-97.3181,0.0,1.5,270.0,1.8,'1111122,1111122,1111122' 
TCOON,ioos:station:TCOON:013:1,2013-12-17T10:18:00Z,27.4847,-97.3181,0.0,1.8,259.0,1.9,'1111122,1111122,1111122' 
TCOON,ioos:station:TCOON:013:1,2013-12-17T10:48:00Z,27.4847,-97.3181,0.0,1.2,266.0,1.4,'1111122,1111122,1111122' 
TCOON,ioos:station:TCOON:013:1,2013-12-17T11:18:00Z,27.4847,-97.3181,0.0,1.1,310.0,1.3,'1111122,1111122,1111122' 